Location: Unspecified
(0.0000°N, 0.0000°E)
Time: 18:59:16
(UTC+00:00)

Freja - Visible Passes

Search period start: 26 May 2024 00:00
Search period end: 05 June 2024 00:00
Orbit: 546 x 1733 km, 63.0° (Epoch: 26 May)

Date Brightness Start Highest point End Pass type
(mag) Time Alt. Az. Time Alt. Az. Time Alt. Az.
28 May 7.2 19:59:08 10° N 20:00:06 16° N 20:00:06 16° N visible
29 May 6.6 19:24:48 10° NNE 19:26:35 18° NE 19:26:35 18° NE visible
30 May 6.9 18:51:35 10° NE 18:52:51 11° ENE 18:53:06 11° ENE visible
30 May 8.1 20:41:11 10° WNW 20:41:17 10° WNW 20:41:17 10° WNW visible
31 May 6.6 20:05:18 10° NW 20:07:53 30° W 20:07:53 30° W visible
01 Jun 4.9 19:29:57 10° NNW 19:33:52 73° WSW 19:34:31 58° S visible
02 Jun 9.3 05:19:52 10° SE 05:24:52 15° ESE 05:29:53 10° E visible
02 Jun 5.0 18:55:01 10° NNW 18:58:53 53° ENE 19:01:12 22° SE visible
03 Jun 6.0 18:20:30 10° N 18:23:52 26° ENE 18:27:18 10° SE visible
04 Jun 7.5 19:37:37 10° W 19:39:59 15° WSW 19:42:26 10° SSW visible
